When you browse on this site, cookies collect data to enhance your experience and personalize the content and advertising you see.
Visit our Privacy Policy to learn more. By continuing to use the site, you agree to this use of cookies and data.
  • In Romania
  • List of Countries
  • For 7 days
  • Water Temperature
  • Weather Map
  • Weather Widgets
  • user-avatar
    Login

    Hourly Weather Saint-Jean-de-la-Ruelle

    Today, 21 August, Wednesday

    Time Temperature Precipitation Wind Pressure Humidity
    00:00 +14°C° 0 mm 3 mps 760 mmHg 71%
    01:00 +13°C° 0 mm 3 mps 760 mmHg 74%
    02:00 +13°C° 0 mm 3 mps 759 mmHg 77%
    03:00 +12°C° 0 mm 3 mps 759 mmHg 80%
    04:00 +12°C° 0 mm 3 mps 759 mmHg 79%
    05:00 +14°C° 0 mm 2 mps 759 mmHg 79%
    06:00 +14°C° 0 mm 2 mps 759 mmHg 79%
    07:00 +16°C° 0 mm 3 mps 760 mmHg 71%
    08:00 +18°C° 0 mm 3 mps 760 mmHg 63%
    09:00 +21°C° 0 mm 3 mps 760 mmHg 55%
    10:00 +22°C° 0 mm 3 mps 759 mmHg 50%
    11:00 +24°C° 0 mm 3 mps 759 mmHg 45%
    12:00 +25°C° 0 mm 3 mps 759 mmHg 40%
    13:00 +26°C° 0 mm 3 mps 758 mmHg 38%
    14:00 +26°C° 0 mm 3 mps 758 mmHg 36%
    15:00 +27°C° 0 mm 3 mps 758 mmHg 33%
    16:00 +26°C° 0 mm 3 mps 758 mmHg 37%
    17:00 +25°C° 0 mm 3 mps 757 mmHg 41%
    18:00 +23°C° 0 mm 2 mps 757 mmHg 45%
    19:00 +21°C° 0 mm 2 mps 757 mmHg 50%
    20:00 +19°C° 0 mm 2 mps 758 mmHg 55%
    21:00 +17°C° 0 mm 2 mps 758 mmHg 60%
    22:00 +17°C° 0 mm 2 mps 758 mmHg 62%
    23:00 +16°C° 0 mm 2 mps 758 mmHg 65%

    Tomorrow, 22 August, Thursday

    Time Temperature Precipitation Wind Pressure Humidity
    00:00 +15°C° 0 mm 2 mps 758 mmHg 67%
    01:00 +15°C° 0 mm 2 mps 758 mmHg 68%
    02:00 +15°C° 0 mm 2 mps 757 mmHg 68%
    03:00 +14°C° 0 mm 2 mps 757 mmHg 69%
    04:00 +14°C° 0 mm 2 mps 757 mmHg 68%
    05:00 +15°C° 0 mm 2 mps 758 mmHg 67%
    06:00 +15°C° 0 mm 2 mps 758 mmHg 66%
    07:00 +17°C° 0 mm 2 mps 758 mmHg 59%
    08:00 +20°C° 0 mm 2 mps 758 mmHg 51%
    09:00 +23°C° 0 mm 2 mps 758 mmHg 43%
    10:00 +25°C° 0 mm 3 mps 758 mmHg 39%
    11:00 +26°C° 0 mm 3 mps 758 mmHg 35%
    12:00 +27°C° 0 mm 3 mps 757 mmHg 31%
    13:00 +28°C° 0 mm 3 mps 757 mmHg 30%
    14:00 +28°C° 0 mm 3 mps 757 mmHg 29%
    15:00 +29°C° 0 mm 3 mps 757 mmHg 27%
    16:00 +27°C° 0 mm 3 mps 756 mmHg 32%
    17:00 +26°C° 0 mm 2 mps 756 mmHg 36%
    18:00 +25°C° 0 mm 2 mps 756 mmHg 40%
    19:00 +23°C° 0 mm 2 mps 757 mmHg 45%
    20:00 +20°C° 0 mm 2 mps 757 mmHg 50%
    21:00 +19°C° 0 mm 2 mps 757 mmHg 55%
    22:00 +18°C° 0 mm 2 mps 757 mmHg 58%
    23:00 +17°C° 0 mm 2 mps 757 mmHg 62%

    Day after tomorrow, 23 August, Friday

    Time Temperature Precipitation Wind Pressure Humidity
    00:00 +17°C° 0 mm 2 mps 757 mmHg 65%
    01:00 +16°C° 0 mm 2 mps 757 mmHg 66%
    02:00 +16°C° 0 mm 2 mps 757 mmHg 67%
    03:00 +15°C° 0 mm 2 mps 757 mmHg 67%
    04:00 +15°C° 0 mm 2 mps 756 mmHg 68%
    05:00 +15°C° 0 mm 2 mps 756 mmHg 69%
    06:00 +15°C° 0 mm 2 mps 756 mmHg 69%
    07:00 +18°C° 0 mm 3 mps 756 mmHg 63%
    08:00 +20°C° 0 mm 3 mps 756 mmHg 57%
    09:00 +24°C° 0 mm 3 mps 756 mmHg 51%
    10:00 +25°C° 0 mm 3 mps 756 mmHg 46%
    11:00 +27°C° 0 mm 3 mps 756 mmHg 42%
    12:00 +29°C° 0 mm 4 mps 756 mmHg 37%
    13:00 +29°C° 0 mm 3 mps 755 mmHg 35%
    14:00 +30°C° 0 mm 3 mps 755 mmHg 33%
    15:00 +31°C° 0 mm 3 mps 754 mmHg 30%
    16:00 +29°C° 0 mm 3 mps 754 mmHg 34%
    17:00 +28°C° 0 mm 3 mps 754 mmHg 39%
    18:00 +27°C° 0 mm 3 mps 754 mmHg 43%
    19:00 +25°C° 0 mm 3 mps 754 mmHg 48%
    20:00 +22°C° 0 mm 3 mps 754 mmHg 53%
    21:00 +21°C° 0 mm 3 mps 754 mmHg 58%
    22:00 +20°C° 0 mm 3 mps 754 mmHg 62%
    23:00 +19°C° 0 mm 3 mps 754 mmHg 66%

    24 August, Saturday

    Time Temperature Precipitation Wind Pressure Humidity
    00:00 +18°C° 0 mm 3 mps 754 mmHg 70%
    01:00 +18°C° 0 mm 2 mps 753 mmHg 73%
    02:00 +17°C° 0 mm 2 mps 753 mmHg 76%
    03:00 +17°C° 0 mm 2 mps 753 mmHg 79%
    04:00 +17°C° 0 mm 2 mps 753 mmHg 79%
    05:00 +17°C° 0 mm 2 mps 753 mmHg 80%
    06:00 +17°C° 0 mm 2 mps 753 mmHg 81%
    07:00 +20°C° 0 mm 2 mps 753 mmHg 71%
    08:00 +24°C° 0 mm 2 mps 753 mmHg 62%
    09:00 +26°C° 0 mm 2 mps 753 mmHg 52%
    10:00 +28°C° 0 mm 2 mps 753 mmHg 45%
    11:00 +30°C° 0 mm 2 mps 752 mmHg 39%
    12:00 +32°C° 0 mm 2 mps 752 mmHg 32%
    13:00 +33°C° 0 mm 1 mps 752 mmHg 29%
    14:00 +33°C° 0 mm 1 mps 752 mmHg 26%
    15:00 +34°C° 0 mm 1 mps 751 mmHg 24%
    16:00 +33°C° 0 mm 1 mps 751 mmHg 27%
    17:00 +31°C° 0 mm 1 mps 751 mmHg 31%
    18:00 +29°C° 0 mm 2 mps 751 mmHg 34%
    19:00 +28°C° 0 mm 2 mps 751 mmHg 38%
    20:00 +26°C° 0 mm 2 mps 751 mmHg 43%
    21:00 +24°C° 0 mm 2 mps 751 mmHg 47%
    22:00 +23°C° 0 mm 2 mps 751 mmHg 51%
    23:00 +21°C° 0 mm 2 mps 751 mmHg 55%

    25 August, Sunday

    Time Temperature Precipitation Wind Pressure Humidity
    00:00 +21°C° 0 mm 2 mps 751 mmHg 59%
    01:00 +20°C° 0 mm 2 mps 751 mmHg 61%
    02:00 +21°C° 0 mm 1 mps 751 mmHg 63%
    03:00 +20°C° 0 mm 1 mps 751 mmHg 64%
    04:00 +20°C° 0 mm 1 mps 751 mmHg 63%
    05:00 +20°C° 0 mm 1 mps 751 mmHg 62%
    06:00 +21°C° 0 mm 1 mps 751 mmHg 61%
    07:00 +23°C° 0 mm 1 mps 751 mmHg 53%
    08:00 +26°C° 0 mm 1 mps 752 mmHg 46%
    09:00 +29°C° 0 mm 1 mps 752 mmHg 38%
    10:00 +31°C° 0 mm 1 mps 752 mmHg 34%
    11:00 +31°C° 0 mm 0 mps 752 mmHg 30%
    12:00 +33°C° 0 mm 0 mps 751 mmHg 25%
    13:00 +34°C° 0 mm 0 mps 751 mmHg 24%
    14:00 +34°C° 0 mm 0 mps 751 mmHg 22%
    15:00 +36°C° 0 mm 1 mps 751 mmHg 21%
    16:00 +35°C° 0 mm 1 mps 751 mmHg 24%
    17:00 +33°C° 0 mm 1 mps 751 mmHg 28%
    18:00 +31°C° 0 mm 1 mps 751 mmHg 31%
    19:00 +30°C° 0 mm 1 mps 751 mmHg 34%
    20:00 +28°C° 0 mm 1 mps 752 mmHg 37%
    21:00 +26°C° 0 mm 2 mps 752 mmHg 40%
    22:00 +25°C° 0 mm 2 mps 752 mmHg 44%
    23:00 +25°C° 0 mm 2 mps 752 mmHg 48%

    26 August, Monday

    Time Temperature Precipitation Wind Pressure Humidity
    00:00 +24°C° 0 mm 2 mps 752 mmHg 52%
    01:00 +23°C° 0 mm 2 mps 752 mmHg 55%
    02:00 +21°C° 0 mm 2 mps 752 mmHg 59%
    03:00 +20°C° 0 mm 2 mps 752 mmHg 63%
    04:00 +20°C° 0 mm 2 mps 753 mmHg 64%
    05:00 +20°C° 0 mm 2 mps 753 mmHg 66%
    06:00 +20°C° 0 mm 2 mps 754 mmHg 67%
    07:00 +23°C° 0 mm 2 mps 754 mmHg 60%
    08:00 +25°C° 0 mm 2 mps 754 mmHg 53%
    09:00 +27°C° 0 mm 2 mps 754 mmHg 45%
    10:00 +29°C° 0 mm 2 mps 754 mmHg 41%
    11:00 +31°C° 0 mm 2 mps 754 mmHg 37%
    12:00 +32°C° 0 mm 2 mps 754 mmHg 33%
    13:00 +34°C° 0 mm 2 mps 754 mmHg 32%
    14:00 +34°C° 0 mm 2 mps 754 mmHg 31%
    15:00 +34°C° 0 mm 3 mps 754 mmHg 30%
    16:00 +33°C° 0 mm 3 mps 754 mmHg 34%
    17:00 +30°C° 0 mm 3 mps 754 mmHg 37%
    18:00 +29°C° 0 mm 2 mps 754 mmHg 41%
    19:00 +27°C° 0 mm 3 mps 754 mmHg 44%
    20:00 +26°C° 0 mm 3 mps 755 mmHg 48%
    21:00 +24°C° 0 mm 3 mps 755 mmHg 51%
    22:00 +22°C° 0 mm 3 mps 755 mmHg 54%
    23:00 +21°C° 0 mm 3 mps 755 mmHg 57%
    Show more